CW7959 Weather Reports


time (UTC)temp
C
wind
direction
speed
KPH
gust
KPH
rain 1hr
cm
rain 24hr
cm
rain mn
cm
humidity
%
barometer
mb
20260506094406 9 301 1.6 4.8 0.00 0.00 0.00 63 1015.8
20260506093904 9 301 3.2 11.3 0.00 0.00 0.00 63 1015.9
20260506092904 8 303 1.6 4.8 0.00 0.00 0.00 67 1015.8
20260506092404 8 304 3.2 11.3 0.00 0.00 0.00 65 1015.9
20260506091904 9 311 4.8 11.3 0.00 0.00 0.00 65 1015.9
20260506091406 8 5 3.2 8.0 0.00 0.00 0.00 68 1015.9
20260506090904 8 5 1.6 8.0 0.00 0.00 0.00 70 1016.0
20260506090404 8 5 3.2 8.0 0.00 0.00 0.00 69 1016.1
20260506085905 8 10 1.6 8.0 0.00 0.00 0.00 67 1015.9
20260506085404 8 10 1.6 8.0 0.00 0.00 0.00 68 1016.0
20260506084906 8 10 1.6 4.8 0.00 0.00 0.00 67 1016.2
20260506084404 8 10 1.6 3.2 0.00 0.00 0.00 69 1016.1
20260506083905 8 10 0.0 3.2 0.00 0.00 0.00 70 1016.2
20260506082905 8 10 1.6 4.8 0.00 0.00 0.00 71 1016.2
20260506082405 7 10 0.0 3.2 0.00 0.00 0.00 73 1016.3
20260506081905 7 10 1.6 4.8 0.00 0.00 0.00 73 1016.2
20260506081404 7 11 1.6 4.8 0.00 0.00 0.00 73 1016.2
20260506080904 7 11 0.0 4.8 0.00 0.00 0.00 74 1016.2
20260506080405 7 11 1.6 4.8 0.00 0.00 0.00 74 1016.1
20260506073404 6 11 0.0 0.0 0.00 0.00 0.00 82 1016.3
20260506072905 6 11 0.0 0.0 0.00 0.00 0.00 82 1016.3
20260506072406 6 11 0.0 0.0 0.00 0.00 0.00 84 1016.3
20260506071905 6 11 0.0 0.0 0.00 0.00 0.00 85 1016.3
20260506071405 5 11 0.0 0.0 0.00 0.00 0.00 87 1016.3
20260506070906 5 11 0.0 0.0 0.00 0.00 0.00 89 1016.3
20260506070405 5 11 0.0 0.0 0.00 0.00 0.00 90 1016.3
20260506062405 3 11 0.0 0.0 0.00 0.00 0.00 95 1016.4
20260506061905 3 14 0.0 0.0 0.00 0.00 0.00 95 1016.3
20260506061405 3 14 0.0 0.0 0.00 0.00 0.00 95 1016.3
20260506060905 3 14 0.0 0.0 0.00 0.00 0.00 95 1016.4
20260506060405 3 14 0.0 0.0 0.00 0.00 0.00 95 1016.4
20260506051406 2 14 0.0 0.0 0.00 0.00 0.00 94 1016.7
20260506050906 2 14 0.0 0.0 0.00 0.00 0.00 94 1016.6
20260506050404 2 14 0.0 0.0 0.00 0.00 0.00 94 1016.7
20260506044906 2 14 0.0 0.0 0.00 0.00 0.00 94 1016.6
20260506043904 2 14 0.0 0.0 0.00 0.00 0.00 94 1016.7
20260506043405 2 14 0.0 0.0 0.00 0.00 0.00 94 1016.8
20260506042905 2 14 0.0 0.0 0.00 0.00 0.00 94 1016.7
20260506041905 2 14 0.0 0.0 0.00 0.00 0.00 94 1016.8
20260506041405 2 14 0.0 0.0 0.00 0.00 0.00 94 1016.8
20260506040905 2 14 0.0 0.0 0.00 0.00 0.00 94 1016.9
20260506035406 1 14 0.0 0.0 0.00 0.00 0.00 93 1016.9
20260506034906 1 14 0.0 0.0 0.00 0.00 0.00 93 1016.9
20260506034406 1 14 0.0 0.0 0.00 0.00 0.00 93 1016.9
20260506033905 1 14 0.0 0.0 0.00 0.00 0.00 93 1016.8
20260506033406 1 14 0.0 0.0 0.00 0.00 0.00 93 1016.9
20260506032905 1 14 0.0 0.0 0.00 0.00 0.00 93 1016.9
20260506032405 1 14 0.0 0.0 0.00 0.00 0.00 93 1016.9
20260506031906 1 14 0.0 0.0 0.00 0.00 0.00 93 1016.9
20260506031405 1 14 0.0 0.0 0.00 0.00 0.00 93 1016.9
20260506030905 1 14 0.0 0.0 0.00 0.00 0.00 92 1016.9
20260506030407 1 14 0.0 0.0 0.00 0.00 0.00 92 1017.0
20260506025906 1 14 0.0 0.0 0.00 0.00 0.00 92 1016.8
20260506025404 1 14 0.0 0.0 0.00 0.00 0.00 92 1016.8
20260506024905 1 14 0.0 0.0 0.00 0.00 0.00 92 1016.7
20260506024406 1 14 0.0 0.0 0.00 0.00 0.00 92 1016.7
20260506023905 1 14 0.0 0.0 0.00 0.00 0.00 91 1016.7
20260506023406 1 14 0.0 0.0 0.00 0.00 0.00 91 1016.7
20260506022405 1 14 0.0 0.0 0.00 0.00 0.00 91 1016.7
20260506021905 1 14 0.0 0.0 0.00 0.00 0.00 91 1016.7
20260506021405 1 14 0.0 0.0 0.00 0.00 0.00 91 1016.7
20260506020904 1 14 0.0 0.0 0.00 0.00 0.00 90 1016.8
20260506020406 1 14 0.0 0.0 0.00 0.00 0.00 91 1016.8
20260506015406 1 14 0.0 0.0 0.00 0.00 0.00 91 1016.8
20260506014405 1 14 0.0 0.0 0.00 0.00 0.00 90 1016.8
20260506012904 1 14 0.0 0.0 0.00 0.00 0.00 90 1016.8
20260506012405 1 14 0.0 0.0 0.00 0.00 0.00 90 1016.8
20260506011905 1 14 0.0 0.0 0.00 0.00 0.00 90 1016.8
20260506011405 1 14 0.0 0.0 0.00 0.00 0.00 89 1016.7
20260506010904 1 14 0.0 0.0 0.00 0.00 0.00 89 1016.8
20260506010405 1 14 0.0 0.0 0.00 0.00 0.00 89 1016.8
20260506005405 1 14 0.0 0.0 0.00 0.00 0.00 88 1016.9
20260506004905 1 14 0.0 0.0 0.00 0.00 0.00 87 1016.9
20260506004405 1 14 0.0 0.0 0.00 0.00 0.00 87 1016.9
20260506003904 1 14 0.0 0.0 0.00 0.00 0.00 86 1017.0
20260506003406 1 14 0.0 0.0 0.00 0.00 0.00 86 1016.9
20260506002906 1 14 0.0 0.0 0.00 0.00 0.00 86 1017.0
20260506001905 2 14 0.0 0.0 0.00 0.00 0.00 85 1017.0
20260506001405 2 14 0.0 0.0 0.00 0.00 0.00 85 1016.9
20260506000905 2 14 0.0 0.0 0.00 0.00 0.00 85 1016.9
20260506000408 2 14 0.0 0.0 0.00 0.00 0.00 84 1017.1
20260505235906 2 14 0.0 0.0 0.00 0.00 0.00 84 1017.1
20260505235405 2 14 0.0 0.0 0.00 0.00 0.00 84 1017.0
20260505234905 2 14 0.0 0.0 0.00 0.00 0.00 84 1017.0
20260505234405 3 14 0.0 0.0 0.00 0.00 0.00 84 1017.0
20260505233905 3 14 0.0 0.0 0.00 0.00 0.00 84 1017.0
20260505233405 3 14 0.0 0.0 0.00 0.00 0.00 84 1017.0
20260505232906 3 14 0.0 0.0 0.00 0.00 0.00 84 1017.0
20260505232405 3 14 0.0 0.0 0.00 0.00 0.00 84 1017.1
20260505231905 3 14 0.0 0.0 0.00 0.00 0.00 84 1017.1
20260505231406 3 14 0.0 0.0 0.00 0.00 0.00 84 1016.9
20260505230905 3 14 0.0 0.0 0.00 0.00 0.00 84 1017.0
20260505230405 3 14 0.0 0.0 0.00 0.00 0.00 84 1016.9
20260505225405 3 14 0.0 0.0 0.00 0.00 0.00 83 1017.1
20260505224903 3 14 0.0 0.0 0.00 0.00 0.00 82 1017.1
20260505224405 3 14 0.0 0.0 0.00 0.00 0.00 82 1017.1
20260505223904 3 14 0.0 0.0 0.00 0.00 0.00 81 1017.2
20260505223405 3 14 0.0 0.0 0.00 0.00 0.00 81 1017.1
20260505222904 3 14 0.0 0.0 0.00 0.00 0.00 80 1017.1
20260505222403 3 14 0.0 0.0 0.00 0.00 0.00 79 1017.1
20260505221903 3 14 0.0 0.0 0.00 0.00 0.00 79 1017.1
20260505215904 4 14 0.0 0.0 0.00 0.00 0.00 76 1017.0
20260505214904 5 14 0.0 0.0 0.00 0.00 0.00 74 1017.0
20260505214403 5 14 0.0 0.0 0.00 0.00 0.00 73 1017.0
20260505213904 5 14 0.0 0.0 0.00 0.00 0.00 73 1017.0
20260505212905 6 14 0.0 0.0 0.00 0.00 0.00 71 1016.9
20260505212403 6 14 0.0 0.0 0.00 0.00 0.00 70 1016.9
20260505211903 6 14 0.0 0.0 0.00 0.00 0.00 70 1016.9
20260505211404 6 14 0.0 0.0 0.00 0.00 0.00 69 1016.9
20260505210903 7 14 0.0 0.0 0.00 0.00 0.00 68 1016.9
20260505205403 7 14 0.0 0.0 0.00 0.00 0.00 68 1016.9
20260505204403 7 14 0.0 0.0 0.00 0.00 0.00 66 1016.9
20260505203903 8 14 0.0 0.0 0.00 0.00 0.00 64 1016.9
20260505202904 8 14 0.0 0.0 0.00 0.00 0.00 63 1016.9
20260505201903 8 14 0.0 0.0 0.00 0.00 0.00 60 1016.8
20260505201403 8 14 0.0 0.0 0.00 0.00 0.00 59 1016.8
20260505200903 8 14 0.0 4.8 0.00 0.00 0.00 58 1016.8
20260505200403 8 14 0.0 4.8 0.00 0.00 0.00 57 1016.8
20260505195904 8 14 3.2 4.8 0.00 0.00 0.00 56 1016.8
20260505195403 8 14 1.6 4.8 0.00 0.00 0.00 56 1016.7
20260505194904 8 14 4.8 9.7 0.00 0.00 0.00 56 1016.7
20260505194404 8 22 3.2 4.8 0.00 0.00 0.00 56 1016.6
20260505192903 9 352 4.8 14.5 0.00 0.00 0.00 53 1016.5
20260505191904 9 6 4.8 16.1 0.00 0.00 0.00 53 1016.4
20260505191403 10 32 4.8 16.1 0.00 0.00 0.00 53 1016.5
20260505190904 10 11 3.2 12.9 0.00 0.00 0.00 53 1016.4
20260505190404 10 0 4.8 19.3 0.00 0.00 0.00 53 1016.3
20260505185904 10 20 4.8 11.3 0.00 0.00 0.00 53 1016.2
20260505185403 10 0 4.8 12.9 0.00 0.00 0.00 52 1016.3
20260505184904 10 18 9.7 12.9 0.00 0.00 0.00 50 1016.2
20260505184403 11 8 4.8 12.9 0.00 0.00 0.00 51 1016.2
20260505183904 11 12 6.4 19.3 0.00 0.00 0.00 50 1016.2
20260505183403 11 9 8.0 22.5 0.00 0.00 0.00 51 1016.1
20260505182903 11 358 4.8 19.3 0.00 0.00 0.00 51 1016.1
20260505181903 11 19 8.0 19.3 0.00 0.00 0.00 50 1016.0
20260505181404 11 42 4.8 14.5 0.00 0.00 0.00 51 1016.0
20260505180404 11 16 3.2 14.5 0.00 0.00 0.00 51 1015.9
20260505175904 11 19 4.8 14.5 0.00 0.00 0.00 53 1016.0
20260505174904 10 22 8.0 19.3 0.00 0.00 0.00 51 1016.0
20260505174403 11 18 4.8 14.5 0.00 0.00 0.00 52 1016.0
20260505173904 11 8 9.7 19.3 0.00 0.00 0.00 50 1016.0
20260505173404 11 40 4.8 12.9 0.00 0.00 0.00 48 1016.0
20260505172903 12 30 3.2 12.9 0.00 0.00 0.00 49 1015.9
20260505172404 12 350 8.0 19.3 0.00 0.00 0.00 47 1015.9
20260505171903 12 41 4.8 14.5 0.00 0.00 0.00 48 1016.0
20260505170904 13 11 9.7 16.1 0.00 0.00 0.00 47 1015.9
20260505165903 13 15 9.7 16.1 0.00 0.00 0.00 48 1015.8
20260505165404 13 5 8.0 19.3 0.00 0.00 0.00 48 1015.8
20260505164904 12 355 8.0 11.3 0.00 0.00 0.00 52 1015.8
20260505164405 12 16 3.2 11.3 0.00 0.00 0.00 50 1015.8
20260505163403 12 0 6.4 14.5 0.00 0.00 0.00 51 1015.8
20260505162903 12 7 8.0 19.3 0.00 0.00 0.00 49 1015.9
20260505162404 12 24 6.4 16.1 0.00 0.00 0.00 49 1015.9
20260505161904 12 4 8.0 16.1 0.00 0.00 0.00 50 1015.9
20260505161403 12 8 4.8 19.3 0.00 0.00 0.00 49 1015.9
20260505160404 12 23 6.4 14.5 0.00 0.00 0.00 49 1016.0
20260505152405 13 34 6.4 14.5 0.00 0.00 0.00 50 1016.1
20260505151904 13 26 6.4 19.3 0.00 0.00 0.00 49 1016.1
20260505151403 13 16 8.0 29.0 0.00 0.00 0.00 49 1016.1
20260505150904 13 20 8.0 16.1 0.00 0.00 0.00 50 1016.0
20260505150405 13 18 4.8 14.5 0.00 0.00 0.00 49 1016.0
20260505124904 11 14 11.3 20.9 0.00 0.00 0.00 61 1016.4
20260505124403 10 359 9.7 24.1 0.00 0.00 0.00 63 1016.3
20260505123905 10 37 4.8 12.9 0.00 0.00 0.00 65 1016.4
20260505123405 10 14 4.8 19.3 0.00 0.00 0.00 63 1016.4
20260505122906 11 1 9.7 19.3 0.00 0.00 0.00 60 1016.4
20260505122404 11 28 8.0 22.5 0.00 0.00 0.00 63 1016.4
20260505121905 11 5 11.3 24.1 0.00 0.00 0.00 64 1016.4
20260505121404 10 7 9.7 20.9 0.00 0.00 0.00 65 1016.4
20260505120904 9 10 11.3 20.9 0.00 0.00 0.00 66 1016.4
20260505120406 8 26 9.7 22.5 0.00 0.00 0.00 67 1016.5
20260505115904 8 5 9.7 25.7 0.00 0.00 0.00 67 1016.5
20260505115404 8 17 8.0 20.9 0.00 0.00 0.00 69 1016.5
20260505114903 8 16 8.0 19.3 0.00 0.00 0.00 69 1016.5
20260505114405 8 26 8.0 19.3 0.00 0.00 0.00 68 1016.6
20260505113403 8 6 11.3 24.1 0.00 0.00 0.00 69 1016.6
20260505112905 8 31 11.3 22.5 0.00 0.00 0.00 70 1016.6
20260505112404 8 20 12.9 25.7 0.00 0.00 0.00 70 1016.5
20260505111403 9 24 12.9 29.0 0.00 0.00 0.00 71 1016.5
20260505110905 8 15 11.3 22.5 0.00 0.00 0.00 71 1016.5
20260505110404 8 8 9.7 22.5 0.00 0.00 0.00 71 1016.6
20260505101905 8 12 8.0 22.5 0.00 0.00 0.00 78 1016.7
20260505101404 8 4 12.9 25.7 0.00 0.00 0.00 78 1016.6
20260505100904 8 11 11.3 25.7 0.00 0.00 0.00 79 1016.6
20260505100405 7 15 11.3 22.5 0.00 0.00 0.00 80 1016.6
20260505095904 7 358 9.7 22.5 0.00 0.00 0.00 81 1016.6
20260505095404 7 23 9.7 22.5 0.00 0.00 0.00 81 1016.7
20260505094905 7 9 6.4 19.3 0.00 0.00 0.00 84 1016.6